Temp
19 19 19 19 19 19 20 20 20 20 20 20 21 21 21 21 21 21 20 20 20 21 22 23 23 23 22 20 19 17 16 18 21 22 22 16 19 16 15 14 13 12 11 12 13
19 19 19 19 20 20 20 20 21 21 21 21 21 21 21 21 21 21 21 21 21 22 22 21 20 21 19 20 18 17 17 22 22 22 14 14 14 14 14 12 11 12 12 12 12
19 19 19 19 20 20 20 20 21 21 21 21 21 21 21 21 20 21 22 22 22 22 22 21 21 21 21 20 19 20 20 21 21 21 18 15 13 13 14 11 10 10 10 11 11
19 18 19 19 20 21 20 21 21 21 21 21 21 21 21 21 20 23 22 22 23 23 23 22 20 21 20 21 20 21 21 21 17 17 17 14 13 11 11 10 11 10 11 11 11
19 19 19 20 20 21 20 21 21 21 21 21 21 21 22 19 21 23 23 23 23 23 22 21 20 21 21 21 21 21 21 16 15 15 14 14 12 12 11 11 12 12 11 10 10
19 19 20 20 21 21 21 21 22 21 21 21 22 22 22 19 23 23 23 23 23 23 22 21 21 21 20 21 20 20 17 16 16 15 15 13 12 12 11 10 10 10 10 10 10
19 19 20 20 21 21 21 22 22 22 22 22 23 23 20 22 23 23 23 23 23 23 22 22 21 21 20 21 19 19 18 17 17 17 14 14 11 10 10 10 9 7 8 9 9
19 20 20 21 21 22 22 22 22 22 22 23 23 23 20 24 23 23 23 23 23 23 22 22 22 19 19 19 17 18 18 17 16 16 15 15 10 10 9 9 7 7 6 8 8
19 20 21 21 21 22 22 22 22 22 22 23 23 22 21 24 23 22 23 23 23 23 22 22 21 16 16 17 17 15 18 18 18 13 15 13 9 8 8 8 7 6 6 7 7
20 20 21 21 21 22 22 23 23 23 23 23 23 21 21 20 22 22 22 22 21 21 20 17 14 15 15 15 16 18 18 17 15 13 11 10 8 8 7 7 5 5 5 6 6
20 20 21 21 21 22 22 23 20 19 21 19 20 20 21 21 22 20 20 21 19 16 17 15 15 15 16 16 18 18 18 17 15 12 10 8 7 7 7 6 6 5 5 5 6
20 20 21 21 21 22 22 18 18 20 19 19 20 21 21 21 19 19 21 19 17 17 17 16 15 15 16 16 16 17 17 15 12 12 10 8 7 7 7 6 5 5 4 5 5
20 21 21 21 22 22 21 18 20 20 18 21 20 20 20 20 17 17 17 18 17 15 14 15 17 16 17 14 15 16 17 16 16 10 9 8 7 7 8 7 6 5 4 5 5
20 21 21 22 22 20 19 20 20 21 17 18 20 20 20 19 18 18 17 18 17 17 16 16 16 16 15 16 15 17 16 15 15 12 11 10 9 7 7 6 6 4 3 3 4
20 21 21 21 21 20 20 20 20 21 20 20 20 21 19 18 18 18 17 17 17 16 17 17 16 15 15 16 15 16 14 14 14 12 12 11 10 6 6 6 5 5 4 3 3
20 21 21 21 21 19 20 20 20 19 20 20 18 18 19 16 16 15 13 14 15 15 15 15 16 16 16 15 15 14 13 13 11 11 13 11 11 5 5 6 5 5 4 4 3
20 20 21 20 19 19 20 20 19 18 20 19 19 18 16 16 15 13 12 11 11 17 13 13 16 14 15 15 14 12 11 13 14 13 14 10 10 5 6 7 6 5 4 3 3
19 20 19 19 18 19 20 18 20 19 18 18 18 18 17 15 14 12 13 11 11 11 10 13 16 14 14 15 14 12 11 12 15 13 11 9 9 6 6 6 6 5 4 3 2
19 19 19 17 18 19 16 16 18 18 18 19 18 18 16 16 15 13 11 11 11 10 14 12 15 14 14 14 14 14 11 12 11 10 8 7 6 6 7 6 5 4 4 1 1
19 19 17 18 19 20 14 15 16 16 17 18 19 17 17 15 16 14 13 11 11 11 11 12 13 13 14 14 13 13 12 12 8 11 11 9 7 6 5 4 4 3 2 1 0
19 15 17 18 19 13 15 15 15 15 16 18 17 16 15 16 14 13 12 12 11 11 11 11 11 14 13 11 12 11 10 8 8 8 9 7 8 4 6 5 3 3 2 0 -0
17 17 17 18 15 9 13 15 16 16 15 16 15 16 16 15 14 13 13 12 10 11 12 10 8 10 13 11 10 10 10 8 8 9 6 5 6 7 6 4 3 3 1 -0 -0
13 14 17 18 16 12 14 14 14 16 14 16 15 15 15 14 15 13 12 11 10 11 11 11 10 11 13 11 11 10 10 9 5 5 5 6 7 5 3 3 4 3 0 -2 -1
13 17 14 10 11 13 13 14 14 14 14 14 14 15 15 14 11 12 11 11 11 11 11 9 8 10 12 12 9 9 9 9 6 5 5 4 4 5 4 3 4 3 -1 -1 -2
10 14 13 15 14 13 14 14 14 15 14 14 14 15 15 14 13 12 11 10 11 10 9 8 10 9 9 8 8 8 8 8 6 6 5 6 4 4 3 3 2 0 -1 0 -2
13 13 10 11 13 14 14 15 14 12 14 15 14 13 13 13 14 11 11 10 11 10 9 6 9 8 9 7 6 8 7 7 7 6 5 4 4 4 3 1 2 -0 1 -2 -3
13 14 12 10 13 15 14 14 14 12 11 10 12 11 11 11 9 8 7 6 9 9 7 7 7 6 6 5 6 7 6 6 6 6 5 4 4 4 3 3 2 -1 -1 -3 -4
Height
796 795 795 795 794 794 794 795 795 796 797 798 799 800 801 802 802 802 803 805 803 802 801 800 800 799 799 803 804 809 839 848 835 832 834 838 837 844 854 856 856 866 873 873 866
796 796 796 795 795 795 795 796 797 797 799 800 802 803 803 804 804 804 807 805 804 803 802 801 802 800 807 808 811 821 843 831 824 825 854 851 849 852 860 864 870 873 873 871 865
796 796 796 795 795 795 797 798 799 800 801 803 804 805 805 805 806 810 809 807 806 805 804 804 803 804 811 811 817 820 834 825 827 827 835 849 857 858 861 878 887 886 881 874 866
797 796 795 794 795 796 798 800 801 802 804 805 806 806 806 806 827 812 810 809 807 806 805 805 805 811 819 821 818 827 823 825 835 834 839 857 869 874 880 892 890 886 883 877 871
798 797 795 794 795 797 799 801 803 804 806 807 808 807 807 811 816 813 811 809 808 807 807 807 811 815 823 822 821 825 828 840 847 845 856 859 872 879 891 893 891 888 882 880 879
798 797 796 795 796 798 801 803 804 806 808 808 809 809 809 820 815 813 812 811 810 810 810 810 813 814 821 823 827 830 837 847 850 852 858 864 879 878 897 896 892 888 887 885 883
799 798 797 797 798 800 803 805 806 808 809 810 810 810 811 821 815 814 812 812 812 811 811 812 812 814 818 823 826 831 841 847 852 851 863 856 885 899 901 899 898 898 896 893 891
800 800 800 800 801 803 805 807 809 811 811 812 811 811 819 817 815 812 811 812 813 813 813 813 812 816 823 826 834 841 845 859 861 856 858 858 907 903 904 902 903 903 902 897 895
802 802 803 804 805 806 808 809 811 813 813 812 813 812 823 818 813 814 813 813 814 814 815 814 815 830 832 841 852 859 863 858 857 865 860 866 906 911 912 908 909 908 904 899 895
804 805 806 807 808 809 810 812 814 814 814 814 815 822 822 825 821 818 816 815 816 816 818 823 835 848 849 854 874 864 863 863 871 881 878 893 914 916 917 914 918 914 910 906 902
806 807 809 810 811 812 813 813 817 822 820 828 829 829 826 825 822 819 818 818 819 828 844 843 853 866 861 858 854 854 860 864 872 882 892 907 916 920 920 918 917 915 912 909 905
808 809 811 812 813 814 814 816 821 822 834 828 828 828 828 826 828 823 820 828 837 848 844 855 868 863 859 858 857 855 861 870 883 882 892 912 921 922 920 920 919 917 914 910 907
810 811 813 814 815 815 815 819 821 822 834 833 832 832 832 831 840 838 832 836 846 855 860 865 862 858 856 866 865 863 862 865 865 889 897 908 926 921 919 919 918 917 916 913 909
811 813 814 815 819 818 820 821 822 822 853 852 840 837 835 833 844 841 840 843 849 857 860 865 861 861 866 867 868 863 858 861 866 880 888 895 908 923 919 917 917 918 914 911 908
812 813 815 817 817 820 823 822 822 824 874 852 845 837 839 844 850 845 845 843 858 861 858 867 867 868 869 868 866 866 865 864 866 878 878 891 896 920 920 921 918 915 912 911 907
813 814 816 818 819 821 822 823 824 853 873 856 851 853 850 854 857 854 855 851 858 863 864 869 863 865 866 865 865 863 865 867 877 880 879 884 887 925 925 920 919 916 915 912 908
814 815 817 819 820 821 823 824 855 873 857 864 861 858 863 868 866 870 877 880 887 873 889 879 869 869 868 869 868 874 879 884 877 880 871 886 891 919 916 914 914 914 913 910 909
816 816 818 819 821 823 824 841 863 865 864 859 860 862 869 872 876 879 880 891 890 891 903 893 879 877 873 875 878 883 889 897 887 889 886 891 896 914 914 911 911 912 911 909 908
818 819 820 822 823 824 833 865 866 863 861 861 863 868 875 873 876 883 894 896 895 898 892 899 883 878 876 875 876 878 895 892 897 903 912 913 916 913 911 913 913 911 910 911 909
818 820 824 824 824 825 848 867 866 864 861 862 868 873 875 881 879 885 890 898 897 896 896 895 894 884 880 877 882 884 891 898 920 903 897 900 912 912 918 918 915 912 910 909 909
819 825 826 825 826 836 860 866 865 863 861 863 870 875 880 880 884 890 896 899 898 896 896 898 903 885 885 894 894 897 901 913 921 925 915 926 906 921 916 916 917 911 907 911 909
819 833 827 827 842 864 866 861 860 863 863 865 869 872 877 882 887 891 893 897 900 897 897 902 911 904 893 898 899 898 904 914 924 918 934 943 917 907 914 917 914 910 910 911 909
825 830 828 827 851 867 865 865 866 863 869 866 871 872 876 884 887 892 896 897 899 898 900 900 907 904 892 899 897 902 905 910 926 933 932 934 912 913 917 915 911 910 911 912 909
824 835 834 836 847 853 862 866 869 867 869 870 873 872 878 884 891 896 897 898 898 898 899 902 914 905 902 896 909 908 905 909 919 934 929 928 922 913 914 913 907 908 914 912 909
826 835 837 847 849 852 854 863 869 869 869 870 874 874 877 886 889 894 898 899 898 899 903 907 907 912 908 910 911 907 907 909 919 921 924 912 922 916 914 913 910 909 909 906 907
826 832 840 849 848 850 857 861 866 874 873 871 875 881 882 883 885 894 895 899 896 902 906 914 910 914 907 914 916 909 911 912 915 916 920 919 920 911 910 912 908 908 906 908 908
821 823 826 856 852 850 857 862 863 871 880 881 878 884 890 893 894 899 902 904 900 903 911 915 918 923 921 924 915 913 913 912 911 913 914 921 914 912 911 909 907 909 910 911 909
Wind_Speed
5 4 4 5 4 4 5 6 7 8 11 12 14 14 13 13 12 8 6 5 5 6 7 7 6 8 4 4 5 3 5 3 1 3 4 9 6 8 6 15 21 9 8 11 21
5 3 1 4 2 3 6 7 9 12 15 15 14 12 9 8 8 14 11 8 5 6 6 10 6 7 4 4 4 5 4 2 1 2 7 13 7 2 8 14 12 16 22 23 26
5 2 0 4 1 6 7 9 11 14 15 13 11 7 3 4 4 6 12 11 8 7 7 5 4 3 5 3 5 1 4 3 5 6 8 7 24 9 3 13 8 9 12 21 29
5 2 3 2 5 9 10 11 12 13 13 10 6 4 4 2 4 8 10 8 7 7 6 5 5 4 4 4 4 5 3 5 7 6 7 10 13 26 20 8 5 7 11 20 26
5 5 2 3 7 12 12 13 13 13 10 7 4 2 3 6 4 10 8 7 6 6 7 3 5 2 3 2 3 4 5 9 12 26 23 25 19 16 14 8 10 18 23 21 24
7 5 4 8 13 14 13 14 13 11 8 5 6 7 5 12 8 10 9 6 8 7 8 7 3 1 4 3 5 4 10 12 7 12 10 19 11 6 8 7 12 15 15 19 22
7 8 10 15 16 15 15 15 13 11 11 13 11 10 11 4 8 17 10 3 6 6 3 4 3 4 2 3 2 6 16 9 7 4 11 13 17 7 7 7 14 12 10 16 23
7 10 13 15 15 16 17 17 14 10 7 9 7 6 5 14 13 14 9 5 5 5 4 6 4 5 5 3 6 5 5 4 4 5 7 8 3 7 9 10 13 13 10 13 19
8 12 14 15 16 17 16 14 11 8 6 4 5 5 3 10 17 14 11 4 4 5 10 6 7 5 8 4 5 7 3 5 1 16 3 8 6 8 9 12 13 11 10 11 12
9 11 12 14 14 15 14 14 13 6 4 5 8 5 8 5 9 11 6 10 8 3 6 10 6 4 6 7 2 3 2 4 5 6 20 20 13 7 7 12 8 9 12 13 14
9 11 11 12 14 12 7 1 5 7 14 4 2 5 4 10 5 19 16 4 7 9 5 7 9 5 3 2 2 2 3 3 4 6 9 13 12 6 5 10 13 11 12 13 13
7 11 12 9 7 5 5 6 5 6 5 7 3 3 4 5 7 22 21 7 8 4 3 7 7 5 3 5 3 3 5 3 4 2 9 9 9 6 5 4 4 7 8 11 13
6 10 10 7 4 4 8 9 9 4 6 4 2 3 3 6 5 10 9 3 6 8 8 7 3 5 3 6 7 3 5 4 4 6 10 13 4 2 1 1 4 5 3 6 11
5 7 9 5 2 6 5 7 3 2 5 10 6 6 6 1 6 9 10 3 6 3 3 6 4 4 8 5 2 2 1 5 5 5 3 4 2 3 3 3 4 7 8 8 9
5 5 9 5 4 4 6 4 2 2 4 7 6 5 6 8 3 11 9 7 4 4 2 1 6 6 5 3 2 6 4 1 3 5 4 4 1 2 2 5 6 7 7 8 8
5 6 8 5 3 5 8 2 1 5 2 4 4 6 5 8 6 8 8 9 3 5 7 2 2 3 2 2 2 7 3 3 4 3 1 1 4 4 1 2 5 5 8 8 8
8 6 6 4 3 8 4 3 5 5 3 4 3 4 4 6 6 8 6 9 5 4 7 7 3 5 4 4 7 10 6 4 5 4 4 3 1 2 4 3 4 7 8 8 7
8 6 8 8 8 8 2 5 6 2 0 1 2 2 5 6 5 8 3 5 6 5 4 4 4 5 7 3 1 4 4 4 4 4 5 3 3 2 6 5 4 6 8 7 7
8 8 6 6 6 4 5 5 4 3 0 2 2 4 5 4 3 5 5 2 2 6 3 4 2 4 4 4 2 2 5 1 1 2 2 1 2 4 1 6 7 8 7 7 7
4 4 5 3 5 3 5 4 2 1 0 2 2 2 2 6 3 4 3 3 4 5 1 1 4 3 4 1 6 6 2 4 4 6 7 3 3 2 4 7 8 8 8 6 6
2 4 4 3 3 6 4 3 2 1 1 3 2 3 3 2 3 2 2 1 2 5 4 2 2 3 2 5 1 5 3 6 4 3 3 4 3 5 3 5 8 9 7 7 9
3 3 3 1 4 2 3 4 2 2 5 3 4 3 3 2 3 2 2 1 3 1 2 1 3 3 1 2 1 2 3 4 4 4 2 1 5 3 2 6 6 8 6 6 7
3 2 4 1 4 2 1 3 3 2 3 2 3 2 2 3 2 2 2 2 4 2 2 1 1 4 2 2 1 4 2 4 4 3 5 3 4 2 5 6 8 8 6 6 6
3 3 4 4 2 7 6 3 3 2 3 4 3 3 3 3 5 4 2 1 3 2 7 2 2 3 5 4 1 4 2 3 4 3 3 5 7 7 10 10 13 10 4 7 6
3 1 1 2 1 5 4 4 4 3 2 3 3 3 3 3 2 2 1 0 2 4 3 3 1 1 3 1 3 3 3 4 6 4 5 3 6 7 7 9 8 6 6 12 9
4 4 3 3 3 6 2 2 4 2 1 0 5 3 3 4 1 7 5 3 3 3 2 3 1 1 3 2 5 4 4 3 3 3 6 5 6 4 7 6 7 7 13 10 10
3 3 4 3 2 3 3 5 6 7 3 4 6 5 4 2 5 3 4 5 3 5 2 2 2 2 4 5 5 5 7 5 3 3 4 4 5 3 7 9 11 5 7 8 10
Wind_Direction
23 40 46 38 46 62 94 107 98 105 117 119 120 117 106 89 73 57 39 345 346 358 12 3 32 15 31 50 53 110 61 56 54 56 62 359 91 4 95 66 56 59 48 9 17
11 12 34 24 30 122 122 118 102 113 120 121 124 121 100 55 58 53 18 13 16 25 29 27 7 8 44 24 24 72 87 138 84 84 98 61 58 298 56 37 36 31 26 27 32
5 359 319 350 75 139 134 126 109 116 120 120 119 110 41 353 50 2 12 28 41 33 14 11 15 41 52 27 2 100 117 185 41 91 123 97 53 26 62 40 15 12 13 25 35
6 14 339 334 141 141 139 130 116 121 124 121 111 64 48 30 71 354 360 8 16 10 14 24 26 40 60 52 354 82 46 41 350 34 71 78 90 61 59 74 38 39 37 35 33
21 4 34 108 133 138 133 132 128 125 127 121 105 40 35 48 37 347 357 13 18 18 40 46 49 59 68 28 53 58 68 52 78 84 87 91 75 82 52 33 45 44 39 33 32
19 54 67 116 125 126 131 135 131 128 121 107 89 69 72 70 357 15 8 30 34 35 36 37 80 104 86 56 69 37 86 123 80 80 61 85 48 68 22 28 45 41 37 32 32
41 68 94 109 115 123 129 125 125 118 108 106 102 90 66 53 17 14 12 46 28 41 58 42 60 83 144 109 346 114 94 81 17 105 146 103 46 57 37 42 45 24 19 26 27
69 90 101 106 116 125 123 123 115 112 107 104 65 69 92 31 29 31 46 66 29 47 40 22 57 94 48 335 27 49 61 70 8 355 7 103 67 39 50 54 42 24 12 22 21
88 104 107 106 113 119 118 113 106 98 93 69 44 74 14 13 26 24 42 59 67 69 47 52 62 77 16 60 34 14 71 44 71 6 96 62 117 54 35 56 44 24 16 19 14
97 115 119 114 116 118 118 108 91 76 50 61 37 47 357 321 353 6 38 47 59 13 20 33 48 72 31 46 81 325 19 56 53 38 71 85 89 67 35 53 34 22 17 14 11
106 122 124 117 116 112 106 48 31 5 34 73 129 126 303 336 34 18 1 31 32 53 51 12 61 41 11 55 216 201 104 86 106 145 72 88 94 73 41 52 37 23 15 10 3
109 133 130 113 107 89 55 82 136 151 74 33 39 41 12 357 26 356 13 68 47 48 341 35 47 322 238 2 76 100 118 89 73 104 95 112 94 75 43 57 52 25 12 6 351
109 149 143 116 67 42 90 109 112 111 89 5 16 22 338 31 51 341 15 73 72 49 42 96 303 315 73 26 33 356 127 190 191 98 69 124 97 100 71 65 33 34 356 352 353
98 161 168 133 81 113 89 113 89 101 77 333 347 7 354 54 49 27 17 50 36 135 140 87 333 37 35 55 23 338 125 266 180 144 196 205 208 224 213 20 15 3 358 343 340
82 152 180 178 125 128 146 112 50 88 56 326 336 324 7 81 288 356 8 31 68 8 88 358 15 7 40 337 334 261 335 262 142 142 116 165 358 227 283 355 343 330 336 334 329
67 132 162 162 114 143 143 88 54 43 74 354 354 358 32 19 17 327 19 33 66 55 31 43 324 70 293 306 336 279 41 64 60 104 48 248 178 174 183 272 295 305 322 323 325
68 144 143 144 144 150 135 44 39 87 322 344 3 18 89 11 19 27 35 37 46 36 8 344 352 337 27 7 1 15 29 354 2 360 233 157 71 231 188 229 253 289 310 315 329
88 116 98 105 122 140 94 54 74 222 278 183 52 57 74 7 15 12 56 38 24 38 69 27 332 14 335 81 288 27 77 113 298 286 278 353 214 256 196 219 271 294 291 315 316
125 96 75 74 113 128 73 57 165 194 214 151 79 69 17 13 99 66 46 66 4 22 77 5 291 329 48 35 88 312 51 190 272 295 359 121 339 347 242 288 306 296 304 321 336
153 101 46 75 105 82 73 135 143 229 81 34 79 16 64 349 49 52 19 351 354 32 158 232 324 41 307 9 19 86 138 24 19 339 313 289 253 198 300 300 307 314 324 333 327
151 67 16 92 82 50 105 140 134 61 109 81 134 101 80 64 71 59 35 338 9 328 64 56 99 288 28 24 317 2 35 62 125 143 238 304 278 205 229 310 316 307 331 343 341
100 73 360 119 54 51 97 128 166 109 27 73 92 93 93 88 66 73 107 302 339 299 59 28 140 279 104 43 42 113 129 109 126 262 187 127 275 149 38 313 295 307 343 342 341
104 138 30 96 126 88 162 70 69 94 36 78 97 64 77 105 94 95 124 265 2 64 100 87 36 341 359 32 338 77 102 116 102 84 213 156 265 149 284 324 344 333 346 322 331
100 93 350 52 38 125 136 122 101 30 81 71 120 93 104 93 22 147 162 317 7 68 65 82 107 177 210 242 229 287 203 159 147 153 185 236 302 324 337 329 338 345 314 305 346
34 181 228 138 358 102 97 123 131 122 55 50 64 73 137 121 88 130 153 55 10 5 60 89 201 298 271 15 271 257 236 186 194 198 180 271 298 294 304 325 316 320 329 338 343
135 133 37 66 73 95 50 156 140 138 56 81 120 93 13 125 158 203 150 187 217 41 68 8 104 358 275 272 301 256 193 170 198 201 263 288 291 219 312 310 325 331 335 341 341
143 108 101 323 70 92 172 167 170 129 41 44 128 103 68 115 116 77 81 81 120 147 118 77 109 53 268 338 328 298 209 189 202 209 204 260 249 320 322 331 325 328 358 339 338